Tracking 31027 objects as of 19-Jul-2025
HD Live streaming from Space Station
objects crossing your sky now

STARLINK-3085

Track STARLINK-3085 now!
10-day predictions
STARLINK-3085 is classified as:


NORAD ID: 49156
Int'l Code: 2021-082AC
Perigee: 577.2 km
Apogee: 581.2 km
Inclination: 70.0 °
Period: 96.1 minutes
Semi major axis: 6950 km
RCS: Unknown
Launch date: September 14, 2021
Source: United States (US)
Launch site: AIR FORCE WESTERN TEST RANGE (AFWTR)
Your satellite tracking list
ONEWEB-0142
Track 1 satellite(s)




NASA's NSSDC Master Catalog

Two Line Element Set (TLE):
1 49156U 21082AC  25199.21492324  .00000672  00000-0  64129-4 0  9992
2 49156  70.0006 125.6428 0002900 269.8609  90.2218 14.98334057212921
Source of the keplerian elements: AFSPC